Flag for Canada

Past Weather in Trois-Rivieres, Quebec, Canada — Yesterday and Last 2 Weeks

Now
83 °F

Warm.


Feels Like: 88 °F
Forecast: 77 / 70 °F
Wind: 13 mph from South

Location: Trois Rivieres

Current Time: Jul 10, 2020 at 10:28:46 pm

Latest Report: Jul 10, 2020 at 9:00 pm


Visibility: N/A

Pressure: 29.80 "Hg

Humidity: 66%

Dew Point: 71 °F

Location of Trois-RivieresLocation

Past Weather in Trois-Rivieres — Graph

°F

Trois-Rivieres Temperature Yesterday

Maximum temperature yesterday: 85 °F (at 7:00 pm)
Minimum temperature yesterday: 69 °F (at 7:00 am)
Average temperature yesterday: 77 °F

High & Low Weather Summary for the Past Weeks

 TemperatureHumidityPressure
High90 °F (Jul 10, 6:00 pm)100% (Jun 28, 7:00 am)30.10 "Hg (Jun 28, 7:00 am)
Low57 °F (Jul 6, 5:00 am)23% (Jul 4, 3:00 pm)29.65 "Hg (Jun 27, 11:00 pm)
Average71 °F75%29.87 "Hg
* Reported Jun 25 8:00 pm — Jul 10 8:00 pm, Trois-Rivieres. Weather by CustomWeather, © 2020

Note: Actual official high and low records may vary slightly from our data, if they occured in-between our weather recording intervals... More about our weather records

Trois-Rivieres Weather History for the Previous 24 Hours

Scroll right to see more
 ConditionsComfort  
Time TempWeatherWind HumidityBarometerVisibility
8:00 pm
Fri, Jul 10
84 °FWarm.13 mph69%29.80 "HgN/A
7:00 pm88 °FWarm.13 mph55%29.80 "HgN/A
6:00 pm90 °FHot.13 mph48%29.81 "HgN/A
5:00 pm89 °FHot.6 mph50%29.83 "HgN/A
4:00 pm88 °FWarm.8 mph55%29.85 "HgN/A
3:00 pm88 °FHot.8 mph53%29.87 "HgN/A
2:00 pm84 °FWarm.8 mph65%29.88 "HgN/A
1:00 pm87 °FWarm.3 mph61%29.90 "HgN/A
12:00 pm86 °FWarm.2 mph66%29.91 "HgN/A
11:00 am78 °FWarm.5 mph84%29.93 "HgN/A
10:00 am81 °FWarm.3 mph75%29.94 "HgN/A
9:00 am78 °FWarm.5 mph79%29.95 "HgN/A
8:00 am77 °FWarm.3 mph78%29.96 "HgN/A
7:00 am75 °FMild.2 mph82%29.95 "HgN/A
6:00 am74 °FMild.2 mph87%29.94 "HgN/A
5:00 am73 °FMild.3 mph88%29.93 "HgN/A
4:00 am72 °FMild.5 mph92%29.93 "HgN/A
3:00 am76 °FMild.6 mph88%29.93 "HgN/A
2:00 am75 °FMild.6 mph83%29.93 "HgN/A
1:00 am76 °FMild.1 mph88%29.92 "HgN/A
12:00 am77 °FMild.1 mph88%29.91 "HgN/A
11:00 pm
Thu, Jul 9
79 °FWarm.2 mph83%29.90 "HgN/A
10:00 pm79 °FWarm.1 mph80%29.90 "HgN/A
Weather by CustomWeather, © 2020

See weather overview